Home > Weather > Friesoythe > Past weeks

Flag for Germany Past Weather in Friesoythe, Lower Saxony, Germany — Yesterday and Last 2 Weeks

Now
68 °F

Partly sunny.


Feels Like: 68 °F
Forecast: 58 / 71 °F
Wind: 2 mph from South

Location: Meppen-Mil

Current Time: Jul 28, 2016 at 12:44:16 PM

Latest Report: Jul 28, 2016 at 11:20 AM


Visibility: N/A

Pressure: 29.98 "Hg

Humidity: 73%

Dew Point: 59 °F

Location of FriesoytheLocation

Past Weather in Friesoythe — Graph

°F

Friesoythe Temperature Yesterday

Maximum temperature yesterday: 73 °F (at 3:20 PM)
Minimum temperature yesterday: 59 °F (at 2:20 AM)
Average temperature yesterday: 66 °F

High & Low Weather Summary for the Past Weeks

 TemperatureHumidityPressure
High91 °F (Jul 20, 5:20 PM)100% (Jul 18, 5:20 AM)30.24 "Hg (Jul 18, 5:20 AM)
Low50 °F (Jul 14, 3:20 AM)31% (Jul 20, 4:20 PM)29.83 "Hg (Jul 20, 6:20 PM)
Average67 °F76%30.08 "Hg
* Reported Jul 13 10:20 AM — Jul 28 10:20 AM, Friesoythe, Weather by CustomWeather, © 2016

Note: Actual official high and low records may vary slightly from our data, if they occured in-between our weather recording intervals... More about our weather records

Advertising

Friesoythe Weather History for the Previous 24 Hours

Scroll right to see more
 ConditionsComfort  
Time TempWeatherWind HumidityBarometerVisibility
10:20 AM
Thu, Jul 28
66 °FPartly sunny.2 mph78%29.98 "HgN/A
9:20 AM63 °FScattered clouds.2 mph88%29.98 "HgN/A
8:20 AM61 °FBroken clouds.2 mph94%29.98 "Hg5 mi
7:20 AM61 °FFog.No wind94%29.98 "Hg0 mi
6:20 AM59 °FCool.No wind94%29.98 "Hg0 mi
5:20 AM59 °FCool.1 mph100%29.98 "Hg1 mi
4:20 AM61 °FCool.1 mph94%29.98 "Hg1 mi
3:20 AM63 °FMild.2 mph94%29.98 "Hg2 mi
2:20 AM63 °FMild.3 mph94%29.98 "Hg3 mi
1:20 AM63 °FMild.3 mph94%29.98 "Hg4 mi
12:20 AM63 °FMild.3 mph94%29.98 "Hg2 mi
11:20 PM
Wed, Jul 27
64 °FMild.3 mph88%29.98 "Hg2 mi
10:20 PM64 °FMild.6 mph88%29.98 "Hg4 mi
9:20 PM64 °FMild.5 mph88%29.98 "Hg3 mi
8:20 PM64 °FMild.3 mph88%29.98 "Hg4 mi
7:20 PM66 °FMild.7 mph78%29.98 "Hg2 mi
6:20 PM70 °FMild.8 mph64%29.98 "Hg6 mi
5:20 PM72 °FMild.9 mph57%29.95 "Hg6 mi
4:20 PM72 °FMild.8 mph57%29.95 "Hg5 mi
3:20 PM73 °FMild.8 mph53%29.95 "Hg5 mi
2:20 PM72 °FPartly sunny.8 mph61%29.95 "HgN/A
1:20 PM70 °FPartly sunny.8 mph64%29.98 "HgN/A
12:20 PM72 °FPassing clouds.8 mph65%29.98 "HgN/A
Weather by CustomWeather, © 2016

See weather overviewHow to use our weather pages